Погода в Хорремшехре

Иран     30°27′37″N   48°10′32″E
темп.,
°C
ветер,
м/с
пор.,
м/с
влажн.,
%
обл.,
%
осадки,
мм/ч
давл.,
гПа
погр.,
м
10 мая, пн
пн1001:30+32сз46140 0.0 100595
04:30+30сз44150 0.0 100549
07:30+30ссз23160 0.0 100643
10:30+36сз23100 0.0 1007604
13:30+40зсз4490 0.0 10052884
16:30+41ссз4580 0.0 10033581
19:30+40сз5680 0.0 1003694
22:30+37сз45100 0.0 100494
11 мая, вт
вт1101:30+34сз34110 0.0 100443
04:30+32сз11140 0.0 100411
07:30+32вюв111326 0.0 100518
10:30+38з119100 0.0 1006508
13:30+42зюз327100 0.0 10053663
16:30+42з32798 0.0 10043958
19:30+41сз4583 0.0 1003488
22:30+37сз58105 0.0 1004141
12 мая, ср
ср1201:30+34з221372 0.0 100418
04:30+32ссв111468 0.0 100411
07:30+34ю3312100 0.0 100536
10:30+39юз339100 0.0 1006603
13:30+42ююз43715 0.0 10053158
16:30+43юз2574 0.0 10025094
19:30+41зюз2381 0.0 1002147
22:30+37зюз591331 0.0 1004173
13 мая, чт
чт1301:30+35с46131 0.0 100381
04:30+33с23150 0.0 100232
07:30+33с11155 0.0 100420
10:30+39зсз44108 0.0 1004641
13:30+43зсз59741 0.0 10035053
16:30+44зсз8963 0.0 10015531
19:30+42сз8970 0.0 10011090
22:30+37с5890 0.0 1002114
14 мая, пт
пт1401:30+35ссз46110 0.0 100285
04:30+33ссз34110 0.0 100244
07:30+33з3499 0.0 100353
10:30+40з5660 0.0 1004704
13:30+44зсз91260 0.0 10024995
16:30+44зсз111250 0.0 10005456
19:30+41сз91250 0.0 10001222
22:30+37зсз71380 0.0 1001264